Погода в Петропавловском

Россия / Курганская область     56°04′39″N   62°33′23″E
темп.,
°C
ветер,
м/с
пор.,
м/с
влажн.,
%
обл.,
%
осадки,
мм/ч
давл.,
гПа
погр.,
м
20 мая, пт
пт2023:00+8юз397383 0.0 1005181
02:00+7юз2378100 0.1 100495
05:00+7зюз6128610 1.4 1003910
08:00+7зсз71177100 0.1 10061268
11:00+9зсз796055 0.1 10081661
14:00+13з694288 0.0 10082359
17:00+13зюз6843100 0.0 10082460
20:00+10зюз4863100 0.0 1008181
21 мая, сб
сб2123:00+8зсз116597 0.0 100710
02:00+7всв2266100 0.0 100531
05:00+6юв3785100 0.3 1003300
08:00+5в61193100 3.1 1001775
11:00+4св81594100 5.3 998798
14:00+5св81394100 0.5 995639
17:00+5св71195100 1.2 993461
20:00+6ссв61097100 0.9 991336
22 мая, вс
вс2223:00+6ссв3699100 0.9 989308
02:00+6с1299100 0.4 987240
05:00+3з71097100 0.9 988507
08:00+2зюз61099100 0.9 990522
11:00+3з71297100 1.4 993583
14:00+5з61188100 0.3 9961024
17:00+9зюз7106477 0.6 9981721
20:00+7юз597823 0.3 999335
23 мая, пн
пн2323:00+4юз512875 0.3 1001289
02:00+2ююз4109048 0.0 1001213
05:00+3ю5138993 0.0 1002335
08:00+6ю61084100 0.0 1001971
11:00+6ю4894100 1.4 10001039
14:00+6вюв3894100 2.8 999585
17:00+9ююз4686100 2.9 999810
20:00+8ююз2494100 0.3 999160
24 мая, вт
вт2423:00+7з2596100 0.9 1001177
02:00+6зюз369491 0.0 1004163
05:00+4з34955 0.0 100688
08:00+8зюз228014 0.0 1008380
11:00+11ююв347257 0.0 1008991
14:00+14ююз5665100 0.0 10081500
17:00+15ююз3566100 0.1 10081200
20:00+11юв2296100 2.8 100938